Location: Peebles
(55.6412°N, 3.1714°W)
Time: 09:14:01
(UTC+01:00)

HJ-1C - Pass Details

Date: 26 September 2021
Orbit: 423 x 436 km, 97.1° (Epoch: 20 October)

Event Time Altitude Azimuth Distance (km) Brightness Sun altitude
Rises 19:39:07 0° 159° (SSE) 2,393 6.8 -6.2°
Reaches altitude 10° 19:41:07 10° 156° (SSE) 1,528 5.8 -6.5°
Maximum altitude 19:44:22 69° 73° (ENE) 465 3.3 -7.0°
Drops below altitude 10° 19:47:38 10° 350° (N) 1,534 6.3 -7.4°
Sets 19:49:39 0° 348° (NNW) 2,404 7.4 -7.7°
